Regional Weather Roundup
Issued by NWS Jackson, KY

Home | Current Version | Previous Version | Graphics & Text | Print | Product List | Glossary On
Versions: 1 2 3 4 5 6 7 8 9 10 11 12 13 14 15 16 17 18 19 20 21 22 23 24 25 26 27 28 29 30 31 32 33 34 35 36 37 38 39 40 41 42 43 44 45 46 47 48 49 50
807
ASUS43 KJKL 132210
RWRJKL

EAST KENTUCKY HOURLY WEATHER ROUNDUP
NATIONAL WEATHER SERVICE JACKSON KY
500 PM EST SAT FEB 13 2016

NOTE: "FAIR" INDICATES FEW OR NO CLOUDS BELOW 12,000 FEET WITH
NO SIGNIFICANT WEATHER AND/OR OBSTRUCTIONS TO VISIBILITY.

* THESE REPORTS ARE NOT UNDER NWS QUALITY CONTROL AND MAY NOT
  REPORT WEATHER SUCH AS PRECIPITATION AND FOG.

KYZ079-080-083-085-087-088-110-112-115-119-120-132300
...EASTERN KENTUCKY...

CITY           SKY/WX    TMP DP  RH WIND       PRES   REMARKS
JACKSON        SUNNY     21   3  45 NE5       30.42S WCI  15
LONDON         SUNNY     24   2  38 N7        30.44R WCI  16
SOMERSET*      SUNNY     25   3  39 N6        30.48S WCI  18
MONTICELLO*    SUNNY     27   9  46 N17       30.48S WCI  14
WILLIAMSBURG*  CLEAR     27   3  36 NW5       30.44R WCI  21
MIDDLESBORO*   SUNNY     27   6  41 NW8       30.43R WCI  18
HARLAN APT*      N/A     27   0  31 NW5       30.38F WCI  21
HAZARD APT*    CLEAR    -17 -36  36 NW5       30.42S WCI -29
BLACK MTN*       N/A      7   0  72 NE5         N/A  WCI  -2
BIG SANDY*     CLEAR     21   0  39 N8        30.43S WCI  11
MOREHEAD APT*  PTCLDY    21   0  39 N8        30.49R WCI  12
$$

KYZ035-036-041-042-044-050-067-078-099-132300
...CENTRAL KENTUCKY...

CITY           SKY/WX    TMP DP  RH WIND       PRES   REMARKS
MT STERLING*   SUNNY     23   3  42 N5        30.49R WCI  17
DANVILLE*      SUNNY     23   5  46 N7        30.49R WCI  15
RICHMOND*      SUNNY     23   1  39 NW7       30.47S WCI  15
LEXINGTON      SUNNY     23   0  36 NW8       30.48R WCI  14
FRANKFORT      SUNNY     23  -3  32 NW9       30.49R WCI  13
$$

KYZ091>093-OHZ055-061-077-WVZ005-015-034-035-042-132300
...SOUTHERN OHIO/WEST VIRGINIA...

CITY           SKY/WX    TMP DP  RH WIND       PRES   REMARKS
COVINGTON      MOSUNNY   18   1  47 NW10      30.49S WCI   6
COLUMBUS       PTSUNNY   14  -2  49 W14       30.47S WCI  -1
DAYTON         PTSUNNY   15   2  56 W13       30.48S WCI   1
WILMINGTON     PTSUNNY   14   1  56 NW12      30.47S WCI   0
HUNTINGTON       N/A     21  -4  33 N8        30.47R WCI  11
CHARLESTON       N/A     19  -4  36 NW13G20   30.44R WCI   6
PINEVILLE*       N/A     17  -4  39 MISG      30.41R
BECKLEY          N/A     12  -5  46 NW16G22   30.27R WCI  -5
$$

VAZ002-007-008-TNZ017-027-036-066-071-132300
...SOUTHWEST VIRGINIA/EAST TENNESSEE...

CITY           SKY/WX    TMP DP  RH WIND       PRES   REMARKS
BRISTOL        SUNNY     26   3  37 NW10      30.36R WCI  16
OAK RIDGE      SUNNY     33  -1  23 N7        30.43R WCI  27
CROSSVILLE     SUNNY     28   4  35 N12       30.38R WCI  18
NASHVILLE      PTSUNNY   32   1  26 N8        30.49F WCI  25
$$

...KEY TO REMARKS...
VSB - VISIBILITY IN MILES
WCI - WIND CHILL INDEX
HX  - HEAT INDEX

$$




USA.gov is the U.S. government's official web portal to all federal, state and local government web resources and services.